Time,TemperatureF,DewpointF,PressureIn,WindDirection,WindDirectionDegrees,WindSpeedMPH,WindSpeedGustMPH,Humidity,HourlyPrecipIn,Conditions,Clouds,dailyrainin,SoftwareType,DateUTC
2013-01-26 00:03:00,15.3,13.2,29.96,ESE,112,0.0,-999.0,91,-99.99,,,0.00,Acu-Link.com,2013-01-26 05:03:00,
2013-01-26 00:18:00,15.1,13.2,29.95,SW,225,2.2,-999.0,92,-99.99,,,0.00,Acu-Link.com,2013-01-26 05:18:00,
2013-01-26 00:34:00,15.1,13.2,29.95,East,90,1.7,-999.0,92,-99.99,,,0.00,Acu-Link.com,2013-01-26 05:34:00,
2013-01-26 00:49:00,15.1,13.2,29.94,NNE,22,2.2,-999.0,92,-99.99,,,0.00,Acu-Link.com,2013-01-26 05:49:00,
2013-01-26 01:04:00,14.9,13.0,29.94,SSW,202,0.0,-999.0,92,-99.99,,,0.00,Acu-Link.com,2013-01-26 06:04:00,
2013-01-26 01:19:00,14.4,12.5,29.94,NE,45,0.0,-999.0,92,-99.99,,,0.00,Acu-Link.com,2013-01-26 06:19:00,
2013-01-26 01:34:00,13.5,11.6,29.95,NE,45,0.0,-999.0,92,-99.99,,,0.00,Acu-Link.com,2013-01-26 06:34:00,
2013-01-26 01:50:00,12.6,10.5,29.94,NE,45,1.1,-999.0,91,-99.99,,,0.00,Acu-Link.com,2013-01-26 06:50:00,
2013-01-26 02:05:00,12.0,10.4,29.93,NW,315,0.0,-999.0,93,-99.99,,,0.00,Acu-Link.com,2013-01-26 07:05:00,
2013-01-26 02:20:00,11.5,9.6,29.92,NW,315,0.0,-999.0,92,-99.99,,,0.00,Acu-Link.com,2013-01-26 07:20:00,
2013-01-26 02:35:00,10.8,9.2,29.93,NW,315,0.0,-999.0,93,-99.99,,,0.00,Acu-Link.com,2013-01-26 07:35:00,
2013-01-26 02:50:00,10.6,9.2,29.92,NW,315,0.0,-999.0,94,-99.99,,,0.00,Acu-Link.com,2013-01-26 07:50:00,
2013-01-26 03:06:00,10.6,9.5,29.92,NW,315,0.0,-999.0,95,-99.99,,,0.00,Acu-Link.com,2013-01-26 08:06:00,
2013-01-26 03:21:00,10.6,9.7,29.92,NW,315,0.0,-999.0,96,-99.99,,,0.00,Acu-Link.com,2013-01-26 08:21:00,
2013-01-26 03:36:00,9.5,7.9,29.92,NW,315,0.0,-999.0,93,-99.99,,,0.00,Acu-Link.com,2013-01-26 08:36:00,
2013-01-26 03:51:00,9.5,8.1,29.90,NW,315,0.0,-999.0,94,-99.99,,,0.00,Acu-Link.com,2013-01-26 08:51:00,
2013-01-26 04:16:00,9.5,8.4,29.91,NW,315,0.0,-999.0,95,-99.99,,,0.00,Acu-Link.com,2013-01-26 09:16:00,
2013-01-26 04:31:00,9.3,8.2,29.91,NW,315,0.0,-999.0,95,-99.99,,,0.00,Acu-Link.com,2013-01-26 09:31:00,
2013-01-26 04:47:00,9.1,8.0,29.90,NW,315,0.0,-999.0,95,-99.99,,,0.00,Acu-Link.com,2013-01-26 09:47:00,
2013-01-26 05:02:00,8.1,6.3,29.92,NW,315,0.0,-999.0,92,-99.99,,,0.00,Acu-Link.com,2013-01-26 10:02:00,
2013-01-26 05:17:00,7.7,6.1,29.92,NW,315,0.0,-999.0,93,-99.99,,,0.00,Acu-Link.com,2013-01-26 10:17:00,
2013-01-26 05:32:00,7.7,6.3,29.93,NW,315,0.0,-999.0,94,-99.99,,,0.00,Acu-Link.com,2013-01-26 10:32:00,
2013-01-26 05:47:00,7.3,5.7,29.92,NW,315,0.0,-999.0,93,-99.99,,,0.00,Acu-Link.com,2013-01-26 10:47:00,
2013-01-26 06:02:00,8.1,6.5,29.94,NNE,22,0.0,-999.0,93,-99.99,,,0.00,Acu-Link.com,2013-01-26 11:02:00,
2013-01-26 06:18:00,7.7,6.1,29.94,NE,45,0.0,-999.0,93,-99.99,,,0.00,Acu-Link.com,2013-01-26 11:18:00,
2013-01-26 06:33:00,7.7,6.1,29.93,NNE,22,0.0,-999.0,93,-99.99,,,0.00,Acu-Link.com,2013-01-26 11:33:00,
2013-01-26 06:48:00,7.7,5.9,29.94,NNE,22,0.0,-999.0,92,-99.99,,,0.00,Acu-Link.com,2013-01-26 11:48:00,
2013-01-26 07:03:00,7.2,4.9,29.95,NNE,22,0.0,-999.0,90,-99.99,,,0.00,Acu-Link.com,2013-01-26 12:03:00,
2013-01-26 07:18:00,7.3,5.0,29.95,NNE,22,0.0,-999.0,90,-99.99,,,0.00,Acu-Link.com,2013-01-26 12:18:00,
2013-01-26 07:34:00,7.2,4.9,29.96,NNE,22,0.0,-999.0,90,-99.99,,,0.00,Acu-Link.com,2013-01-26 12:34:00,
2013-01-26 07:49:00,7.5,5.4,29.95,WSW,247,1.1,-999.0,91,-99.99,,,0.00,Acu-Link.com,2013-01-26 12:49:00,
2013-01-26 08:04:00,8.2,5.6,29.95,NNE,22,1.7,-999.0,89,-99.99,,,0.00,Acu-Link.com,2013-01-26 13:04:00,
2013-01-26 08:19:00,9.0,5.9,29.95,East,90,1.7,-999.0,87,-99.99,,,0.00,Acu-Link.com,2013-01-26 13:19:00,
2013-01-26 08:35:00,10.0,6.4,29.96,NNE,22,1.7,-999.0,85,-99.99,,,0.00,Acu-Link.com,2013-01-26 13:35:00,
2013-01-26 08:50:00,11.3,6.1,29.97,North,0,3.7,-999.0,79,-99.99,,,0.00,Acu-Link.com,2013-01-26 13:50:00,
2013-01-26 09:05:00,12.0,5.6,29.98,WNW,292,3.7,-999.0,75,-99.99,,,0.00,Acu-Link.com,2013-01-26 14:05:00,
2013-01-26 09:20:00,13.3,5.1,29.96,North,0,6.8,-999.0,69,-99.99,,,0.00,Acu-Link.com,2013-01-26 14:20:00,
2013-01-26 09:35:00,13.8,5.2,29.96,SSW,202,3.7,-999.0,68,-99.99,,,0.00,Acu-Link.com,2013-01-26 14:35:00,
2013-01-26 09:51:00,14.7,5.4,29.96,WSW,247,2.2,-999.0,66,-99.99,,,0.00,Acu-Link.com,2013-01-26 14:51:00,
2013-01-26 10:06:00,15.4,5.4,29.96,NNE,22,4.7,-999.0,64,-99.99,,,0.00,Acu-Link.com,2013-01-26 15:06:00,
2013-01-26 10:21:00,16.2,5.9,29.96,East,90,1.7,-999.0,63,-99.99,,,0.00,Acu-Link.com,2013-01-26 15:21:00,
2013-01-26 10:36:00,16.7,4.9,29.97,NNW,337,4.2,-999.0,59,-99.99,,,0.00,Acu-Link.com,2013-01-26 15:36:00,
2013-01-26 10:51:00,17.6,5.4,29.97,NNE,22,1.1,-999.0,58,-99.99,,,0.00,Acu-Link.com,2013-01-26 15:51:00,
2013-01-26 11:07:00,18.0,5.4,29.96,ENE,67,4.7,-999.0,57,-99.99,,,0.00,Acu-Link.com,2013-01-26 16:07:00,
2013-01-26 11:22:00,19.0,5.9,29.95,SE,135,2.2,-999.0,56,-99.99,,,0.00,Acu-Link.com,2013-01-26 16:22:00,
2013-01-26 11:37:00,19.4,5.1,29.94,ENE,67,4.7,-999.0,53,-99.99,,,0.00,Acu-Link.com,2013-01-26 16:37:00,
2013-01-26 11:53:00,20.1,5.3,29.94,NNW,337,6.3,-999.0,52,-99.99,,,0.00,Acu-Link.com,2013-01-26 16:53:00,
2013-01-26 12:08:00,20.3,5.5,29.93,NNE,22,5.3,-999.0,52,-99.99,,,0.00,Acu-Link.com,2013-01-26 17:08:00,
2013-01-26 12:23:00,21.2,6.8,29.94,NE,45,2.7,-999.0,53,-99.99,,,0.00,Acu-Link.com,2013-01-26 17:23:00,
2013-01-26 12:38:00,21.4,6.1,29.92,SW,225,5.3,-999.0,51,-99.99,,,0.00,Acu-Link.com,2013-01-26 17:38:00,
2013-01-26 12:53:00,22.3,6.5,29.94,NNE,22,5.8,-999.0,50,-99.99,,,0.00,Acu-Link.com,2013-01-26 17:53:00,
2013-01-26 13:09:00,22.6,5.9,29.92,ENE,67,2.2,-999.0,48,-99.99,,,0.00,Acu-Link.com,2013-01-26 18:09:00,
2013-01-26 13:24:00,22.6,5.4,29.92,West,270,8.3,-999.0,47,-99.99,,,0.00,Acu-Link.com,2013-01-26 18:24:00,
2013-01-26 13:39:00,23.5,5.8,29.93,West,270,3.7,-999.0,46,-99.99,,,0.00,Acu-Link.com,2013-01-26 18:39:00,
2013-01-26 13:54:00,23.4,2.7,29.94,South,180,2.7,-999.0,40,-99.99,,,0.00,Acu-Link.com,2013-01-26 18:54:00,
2013-01-26 14:09:00,23.0,1.2,29.93,ENE,67,2.7,-999.0,38,-99.99,,,0.00,Acu-Link.com,2013-01-26 19:09:00,
2013-01-26 14:25:00,23.0,0.1,29.95,NE,45,3.2,-999.0,36,-99.99,,,0.00,Acu-Link.com,2013-01-26 19:25:00,
2013-01-26 14:40:00,25.0,0.6,29.94,NNE,22,5.3,-999.0,34,-99.99,,,0.00,Acu-Link.com,2013-01-26 19:40:00,
2013-01-26 14:55:00,24.8,0.5,29.95,NNE,22,2.2,-999.0,34,-99.99,,,0.00,Acu-Link.com,2013-01-26 19:55:00,
2013-01-26 15:10:00,23.2,0.8,29.96,NNE,22,5.3,-999.0,37,-99.99,,,0.00,Acu-Link.com,2013-01-26 20:10:00,
2013-01-26 15:26:00,23.0,0.1,29.98,SW,225,7.3,-999.0,36,-99.99,,,0.00,Acu-Link.com,2013-01-26 20:26:00,
2013-01-26 15:41:00,23.4,0.4,29.98,NNE,22,6.3,-999.0,36,-99.99,,,0.00,Acu-Link.com,2013-01-26 20:41:00,
2013-01-26 15:56:00,23.5,1.1,29.99,North,0,4.2,-999.0,37,-99.99,,,0.00,Acu-Link.com,2013-01-26 20:56:00,
2013-01-26 16:11:00,22.6,0.3,29.99,NE,45,8.3,-999.0,37,-99.99,,,0.00,Acu-Link.com,2013-01-26 21:11:00,
2013-01-26 16:26:00,21.4,-0.8,30.01,SW,225,6.3,-999.0,37,-99.99,,,0.00,Acu-Link.com,2013-01-26 21:26:00,
2013-01-26 16:42:00,20.5,-2.2,29.99,SW,225,4.2,-999.0,36,-99.99,,,0.00,Acu-Link.com,2013-01-26 21:42:00,
2013-01-26 16:57:00,19.6,-1.8,30.00,WNW,292,6.8,-999.0,38,-99.99,,,0.00,Acu-Link.com,2013-01-26 21:57:00,
2013-01-26 17:12:00,18.9,-5.4,30.02,WNW,292,6.3,-999.0,33,-99.99,,,0.00,Acu-Link.com,2013-01-26 22:12:00,
2013-01-26 17:27:00,18.0,-5.0,30.02,West,270,5.3,-999.0,35,-99.99,,,0.00,Acu-Link.com,2013-01-26 22:27:00,
2013-01-26 17:42:00,17.6,-5.3,30.02,NNE,22,3.7,-999.0,35,-99.99,,,0.00,Acu-Link.com,2013-01-26 22:42:00,
2013-01-26 17:58:00,17.2,-6.3,30.03,NNE,22,4.2,-999.0,34,-99.99,,,0.00,Acu-Link.com,2013-01-26 22:58:00,
2013-01-26 18:13:00,16.7,-5.6,30.05,West,270,6.8,-999.0,36,-99.99,,,0.00,Acu-Link.com,2013-01-26 23:13:00,
2013-01-26 18:28:00,16.9,-6.0,30.07,NE,45,7.3,-999.0,35,-99.99,,,0.00,Acu-Link.com,2013-01-26 23:28:00,
2013-01-26 18:43:00,16.7,-5.6,30.06,ESE,112,2.7,-999.0,36,-99.99,,,0.00,Acu-Link.com,2013-01-26 23:43:00,
2013-01-26 18:58:00,16.3,-5.4,30.07,North,0,5.3,-999.0,37,-99.99,,,0.00,Acu-Link.com,2013-01-26 23:58:00,
2013-01-26 19:14:00,16.0,-3.5,30.07,NNW,337,4.7,-999.0,41,-99.99,,,0.00,Acu-Link.com,2013-01-27 00:14:00,
2013-01-26 19:29:00,15.3,-2.7,30.08,NNE,22,5.8,-999.0,44,-99.99,,,0.00,Acu-Link.com,2013-01-27 00:29:00,
2013-01-26 19:44:00,14.9,-1.6,30.09,NNE,22,4.2,-999.0,47,-99.99,,,0.00,Acu-Link.com,2013-01-27 00:44:00,
2013-01-26 19:59:00,14.7,-1.4,30.09,NNW,337,4.2,-999.0,48,-99.99,,,0.00,Acu-Link.com,2013-01-27 00:59:00,
2013-01-26 20:15:00,14.5,-1.1,30.09,NNW,337,5.3,-999.0,49,-99.99,,,0.00,Acu-Link.com,2013-01-27 01:15:00,
2013-01-26 20:30:00,14.4,-0.8,30.10,NNE,22,4.7,-999.0,50,-99.99,,,0.00,Acu-Link.com,2013-01-27 01:30:00,
2013-01-26 20:45:00,13.8,-0.9,30.10,ENE,67,5.8,-999.0,51,-99.99,,,0.00,Acu-Link.com,2013-01-27 01:45:00,
2013-01-26 21:00:00,13.3,-0.2,30.11,North,0,3.7,-999.0,54,-99.99,,,0.00,Acu-Link.com,2013-01-27 02:00:00,
2013-01-26 21:16:00,13.3,-0.2,30.11,SE,135,2.2,-999.0,54,-99.99,,,0.00,Acu-Link.com,2013-01-27 02:16:00,
2013-01-26 21:31:00,13.1,-0.4,30.11,South,180,7.3,-999.0,54,-99.99,,,0.00,Acu-Link.com,2013-01-27 02:31:00,
2013-01-26 21:46:00,12.9,-0.6,30.12,ENE,67,3.7,-999.0,54,-99.99,,,0.00,Acu-Link.com,2013-01-27 02:46:00,
2013-01-26 22:01:00,12.9,-0.2,30.13,SW,225,6.3,-999.0,55,-99.99,,,0.00,Acu-Link.com,2013-01-27 03:01:00,
2013-01-26 22:17:00,12.7,0.0,30.13,NE,45,4.2,-999.0,56,-99.99,,,0.00,Acu-Link.com,2013-01-27 03:17:00,
2013-01-26 22:32:00,12.7,0.0,30.14,NNE,22,4.7,-999.0,56,-99.99,,,0.00,Acu-Link.com,2013-01-27 03:32:00,
2013-01-26 22:47:00,12.7,0.0,30.14,WNW,292,2.7,-999.0,56,-99.99,,,0.00,Acu-Link.com,2013-01-27 03:47:00,
2013-01-26 23:02:00,12.6,0.3,30.15,WNW,292,4.2,-999.0,57,-99.99,,,0.00,Acu-Link.com,2013-01-27 04:02:00,
2013-01-26 23:17:00,12.4,0.1,30.15,South,180,6.3,-999.0,57,-99.99,,,0.00,Acu-Link.com,2013-01-27 04:17:00,
2013-01-26 23:33:00,12.2,0.3,30.15,WNW,292,2.7,-999.0,58,-99.99,,,0.00,Acu-Link.com,2013-01-27 04:33:00,
2013-01-26 23:48:00,12.7,0.4,30.16,NE,45,2.7,-999.0,57,-99.99,,,0.00,Acu-Link.com,2013-01-27 04:48:00,